This demonstration page uses our WeatherBlox Daily Observations layout. Learn more.

40.92945, -100.16068

Hourly Observations for September 18, 2018

Temp ( °F °C ) Dew Point ( °F °C ) Humidity (%) Winds ( mph kmh ) Pressure ( in mb ) Visibility ( mi km ) Precip ( " mm )
12:15 am 00:15 Clear 74 23.6 64 17.5 69 69 SE 7 11 29.8 1009 10 16.0934 0 0
12:35 am 00:35 Clear 73 22.9 64 17.5 72 72 SSE 7 11 29.8 1009 10 16.0934 0 0
12:55 am 00:55 Clear 72 22.4 64 17.7 75 75 SSE 6 9 29.85 1011 10 16.0934 0 0
1:15 am 01:15 Clear 71 21.5 64 17.7 79 79 SSE 6 9 29.85 1011 10 16.0934 0 0
1:35 am 01:35 Clear 72 22.3 64 18 77 77 S 6 9 29.85 1011 10 16.0934 0 0
1:55 am 01:55 Clear 72 22.2 64 17.9 77 77 NW 14 22 29.88 1012 10 16.0934 0 0
2:15 am 02:15 Clear 75 23.7 64 17.8 70 70 WSW 3 6 29.83 1010 10 16.0934 0 0
2:35 am 02:35 Clear 73 23 64 17.5 71 71 SSE 3 6 29.83 1010 10 16.0934 0 0
2:55 am 02:55 Clear 71 21.6 64 17.5 78 78 Calm 29.83 1010 10 16.0934 0 0
3:15 am 03:15 Clear 70 21.3 63 17.1 77 77 SSE 9 15 29.83 1010 10 16.0934 0 0
3:35 am 03:35 Clear 71 21.5 64 17.5 78 78 SSE 7 11 29.83 1010 10 16.0934 0 0
3:55 am 03:55 Clear 71 21.6 64 17.5 78 78 Calm 29.83 1010 10 16.0934 0 0
4:15 am 04:15 Clear 71 21.7 64 17.5 77 77 ESE 3 6 29.83 1010 10 16.0934 0 0
4:35 am 04:35 Clear 71 21.6 64 17.6 78 78 SE 6 9 29.83 1010 10 16.0934 0 0
4:55 am 04:55 Clear 70 21.2 64 17.6 80 80 SE 6 9 29.83 1010 10 16.0934 0 0
5:15 am 05:15 Clear 69 20.7 64 17.5 82 82 ESE 3 6 29.83 1010 10 16.0934 0 0
5:35 am 05:35 Clear 69 20.5 64 17.7 84 84 SE 5 7 29.83 1010 10 16.0934 0 0
5:55 am 05:55 Partly Cloudy 69 20.3 64 17.9 86 86 N 9 15 29.88 1012 10 16.0934 0 0
6:15 am 06:15 Clear 71 21.4 64 17.8 80 80 NNE 6 9 29.85 1011 10 16.0934 0 0
6:35 am 06:35 Clear 70 20.9 62 16.7 77 77 NNE 6 9 29.85 1011 10 16.0934 0 0
6:55 am 06:55 Clear 66 19.1 61 16 82 82 NE 8 13 29.88 1012 10 16.0934 0 0
7:15 am 07:15 Clear 65 18.5 61 16 85 85 NE 6 9 29.88 1012 10 16.0934 0 0
7:35 am 07:35 Sunny 64 18 60 15.8 87 87 NE 5 7 29.88 1012 10 16.0934 0 0
7:55 am 07:55 Sunny 64 17.5 60 15.8 90 90 E 5 7 29.88 1012 10 16.0934 0 0
8:15 am 08:15 Sunny 65 18.5 61 16.3 87 87 N 7 11 29.88 1012 10 16.0934 0 0
8:35 am 08:35 Sunny 66 19.1 62 16.5 85 85 ENE 6 9 29.88 1012 10 16.0934 0 0
8:55 am 08:55 Sunny 68 20 62 16.8 82 82 ENE 6 9 29.85 1011 10 16.0934 0 0
9:15 am 09:15 Sunny 69 20.4 62 16.6 79 79 NNE 13 20 29.88 1012 10 16.0934 0 0
9:35 am 09:35 Sunny 69 20.4 62 16.9 80 80 NNE 9 15 29.88 1012 10 16.0934 0 0
9:55 am 09:55 Sunny 72 22 63 17.3 75 75 NNE 16 26 29.91 1013 10 16.0934 0 0
10:15 am 10:15 Mostly Cloudy 71 21.9 63 17.2 75 75 N 9 15 29.91 1013 10 16.0934 0 0
10:35 am 10:35 Mostly Cloudy 74 23.2 63 17.3 70 70 NNE 10 17 29.91 1013 10 16.0934 0 0
10:55 am 10:55 Partly Cloudy 76 24.5 61 16.3 60 60 NE 7 11 29.85 1011 10 16.0934 0 0
11:15 am 11:15 Sunny 78 25.8 60 15.6 53 53 ENE 14 22 29.85 1011 10 16.0934 0 0
11:35 am 11:35 Sunny 80 26.5 60 15.3 50 50 ENE 14 22 29.85 1011 10 16.0934 0 0
11:55 am 11:55 Sunny 80 26.9 59 14.8 48 48 NE 14 22 29.83 1010 10 16.0934 0 0
12:15 pm 12:15 Sunny 82 27.5 59 14.8 46 46 ENE 18 30 29.8 1009 10 16.0934 0 0
12:35 pm 12:35 Sunny 82 28 59 14.9 45 45 ENE 18 30 29.8 1009 10 16.0934 0 0
12:55 pm 12:55 Sunny 83 28.3 59 15.1 45 45 E 12 19 29.8 1009 10 16.0934 0 0
1:15 pm 13:15 Sunny 83 28.6 59 15.2 44 44 ENE 15 24 29.8 1009 10 16.0934 0 0
1:35 pm 13:35 Sunny 84 29.1 60 15.5 44 44 E 13 20 29.8 1009 7 11.26538 0 0
1:55 pm 13:55 Sunny 82 28 57 13.8 42 42 E 17 28 29.77 1008 10 16.0934 0 0
2:15 pm 14:15 Sunny 83 28.6 59 14.8 43 43 ESE 17 28 29.77 1008 10 16.0934 0 0
2:35 pm 14:35 Sunny 86 30.1 58 14.6 39 39 ESE 15 24 29.74 1007 10 16.0934 0 0
2:55 pm 14:55 Sunny 87 30.3 57 13.7 36 36 E 16 26 29.74 1007 10 16.0934 0 0
3:15 pm 15:15 Sunny 87 30.5 57 14 37 37 E 15 24 29.74 1007 10 16.0934 0 0
3:35 pm 15:35 Sunny 88 30.9 58 14.2 36 36 ESE 14 22 29.71 1006 10 16.0934 0 0
3:55 pm 15:55 Sunny 88 30.9 59 14.9 38 38 ESE 12 19 29.71 1006 10 16.0934 0 0
4:15 pm 16:15 Sunny 87 30.8 59 15.1 39 39 E 13 20 29.71 1006 10 16.0934 0 0
4:35 pm 16:35 Sunny 88 31 59 15.2 38 38 ESE 10 17 29.71 1006 10 16.0934 0 0
4:55 pm 16:55 Sunny 88 31 60 15.8 40 40 ESE 10 17 29.71 1006 10 16.0934 0 0
5:15 pm 17:15 Sunny 87 30.7 61 16.2 42 42 ESE 9 15 29.71 1006 10 16.0934 0 0
5:35 pm 17:35 Sunny 87 30.5 62 16.4 43 43 E 13 20 29.71 1006 10 16.0934 0 0
5:55 pm 17:55 Sunny 86 30 63 17.1 46 46 E 9 15 29.68 1005 10 16.0934 0 0
6:15 pm 18:15 Sunny 85 29.5 64 17.8 49 49 E 12 19 29.68 1005 10 16.0934 0 0
6:35 pm 18:35 Sunny 85 29.2 65 18.4 52 52 E 9 15 29.68 1005 10 16.0934 0 0
6:55 pm 18:55 Sunny 83 28.6 66 19 56 56 E 8 13 29.71 1006 10 16.0934 0 0
7:15 pm 19:15 Sunny 82 27.7 67 19.2 60 60 E 9 15 29.71 1006 10 16.0934 0 0
7:35 pm 19:35 Sunny 80 26.6 67 19.3 64 64 E 9 15 29.71 1006 10 16.0934 0 0
7:55 pm 19:55 Clear 79 26.1 67 19.5 67 67 E 13 20 29.71 1006 10 16.0934 0 0
8:15 pm 20:15 Clear 78 25.7 66 18.9 66 66 E 14 22 29.74 1007 10 16.0934 0 0
8:35 pm 20:35 Clear 78 25.5 66 18.7 66 66 E 15 24 29.77 1008 10 16.0934 0 0
8:55 pm 20:55 Clear 76 24.5 66 19 72 72 E 13 20 29.77 1008 10 16.0934 0 0
9:15 pm 21:15 Clear 75 24.1 67 19.5 76 76 E 15 24 29.77 1008 10 16.0934 0 0
9:35 pm 21:35 Clear 74 23.5 67 19.2 77 77 E 14 22 29.77 1008 10 16.0934 0 0
9:55 pm 21:55 Clear 73 23 66 18.7 77 77 E 12 19 29.77 1008 10 16.0934 0 0
10:15 pm 22:15 Clear 73 22.5 66 18.8 80 80 E 16 26 29.77 1008 10 16.0934 0 0
10:35 pm 22:35 Clear 72 22 66 18.7 82 82 E 13 20 29.8 1009 10 16.0934 0 0
10:55 pm 22:55 Clear 71 21.6 65 18.6 83 83 E 10 17 29.8 1009 10 16.0934 0 0
11:15 pm 23:15 Clear 71 21.4 65 18.5 84 84 ESE 8 13 29.8 1009 10 16.0934 0 0
11:35 pm 23:35 Clear 70 21 65 18.5 86 86 E 9 15 29.8 1009 10 16.0934 0 0
11:55 pm 23:55 Clear 69 20.7 65 18.4 87 87 E 7 11 29.8 1009 10 16.0934 0 0

Powered by AerisWeather